Location: Cheching
(60.0667°N, 164.2167°W)
Time: 12:44:48
(UTC+00:00)

NOAA 19 - Pass Details

Date: 23 January 2021
Orbit: 840 x 862 km, 99.2° (Epoch: 01 March)

Event Time Altitude Azimuth Distance (km) Brightness Sun altitude
Rises 04:46:05 0° 172° (S) 3,430 8.5 -14.0°
Reaches altitude 10° 04:48:30 10° 176° (S) 2,495 7.8 -14.3°
Maximum altitude 04:53:59 60° 256° (WSW) 981 5.9 -14.9°
Drops below altitude 10° 04:59:28 10° 337° (NNW) 2,499 7.8 -15.6°
Sets 05:01:53 0° 341° (NNW) 3,436 8.5 -15.9°
